Location: Alphaba - Cockrum - Ingrams Mill Volunteer Fire Department Station 2
(34.7915°N, 89.7598°W)
Time: 08:54:27
(UTC+00:00)

Cosmos 2227 Rocket - Pass Details

Date: 11 December 2025
Orbit: 838 x 844 km, 71.0° (Epoch: 24 January)

Event Time Altitude Azimuth Distance (km) Brightness Sun altitude
Rises 23:43:57 0° 343° (NNW) 3,397 5.3 -11.2°
Reaches altitude 10° 23:46:27 10° 347° (NNW) 2,460 4.6 -11.7°
Maximum altitude 23:52:01 59° 67° (ENE) 970 2.2 -12.8°
Drops below altitude 10° 23:57:33 10° 146° (SE) 2,451 4.5 -13.9°
Sets 00:00:01 0° 150° (SSE) 3,383 5.2 -14.4°
